Location: UBC Liquid-Mirror Observatory
(49.2876°N, 122.5728°W)
Time: 17:49:09
(UTC-07:00)

Daily predictions for brighter satellites

Satellite Brightness Start Highest point End
(mag) Time Altitude Azimuth Time Altitude Azimuth Time Altitude Azimuth
BREEZE-M DEB (TANK) 3.4 18:20:33 10° W 18:23:46 74° SSW 18:34:18 10° ESE
USA 234 3.9 18:25:19 10° ENE 18:31:33 48° N 18:37:46 10° W
Cosmos 2082 Rocket 4.4 18:32:35 10° W 18:36:43 20° NW 18:40:53 10° N
Cosmos 2322 Rocket 4.4 18:31:55 10° NW 18:36:50 32° WSW 18:41:43 10° SSW
CSL-04 Rocket 4.2 18:32:00 10° S 18:37:17 66° WSW 18:42:35 10° NNW
Cosmos 1805 Rocket 4.4 18:36:56 10° N 18:40:46 28° ENE 18:44:35 10° SE
COSMOS 2428 2.7 18:35:33 10° NNW 18:41:14 65° ENE 18:46:53 10° SE
CZ-4C R/B 3.2 18:37:42 10° SSE 18:41:56 25° ESE 18:46:37 10° ENE
Cosmos 2333 Rocket 2.7 18:38:30 10° NNW 18:43:56 41° NE 18:49:20 10° ESE
Cosmos-2242 3.8 18:40:34 10° SSW 18:44:44 55° WNW 18:48:57 10° N
Cosmos 44 Rocket 4.1 18:41:38 10° S 18:45:41 30° ESE 18:49:46 10° NE
FENGYUN 3A 4.2 18:40:52 10° SE 18:45:47 37° ENE 18:50:45 10° N
CORIOLIS 4.3 18:41:19 10° SSE 18:46:44 82° WSW 18:52:12 10° NNW
Cosmos 2366 rocket 4.0 18:42:15 10° S 18:48:27 84° E 18:54:38 10° N
Cosmos 1833 4.2 18:43:07 10° SSW 18:48:47 74° ESE 18:54:24 10° NNE
ERS-2 2.2 18:45:36 10° SSE 18:49:18 83° WSW 18:53:02 10° NNW
Cosmos 2219 4.1 18:44:26 10° SSE 18:49:19 29° ESE 18:54:12 10° NE
Cosmos 158 Rocket 4.4 18:47:05 10° S 18:51:50 41° ESE 18:56:43 10° NE
Cosmos 1461 4.5 18:49:33 10° WSW 18:53:17 32° NW 18:57:12 10° NNE
MOS 1 4.3 18:47:42 10° SSE 18:53:20 69° ENE 18:59:01 10° NNW
GRACE-1 4.2 18:51:41 10° SSE 18:54:05 36° E 18:56:31 10° NNE
Cosmos 1633 Rocket 4.2 18:51:11 10° NNE 18:54:42 23° ENE 18:58:13 10° ESE
Cosmos 1726 3.3 18:53:08 10° SE 18:56:02 22° E 18:58:56 10° NE
YAOGAN 1 2.6 18:52:04 10° SSE 18:56:24 90° E 19:00:46 10° NNW
EO 1 Del DPAF 3.5 18:52:50 10° NNE 18:56:33 45° E 19:00:15 10° S
APEX 3.5 18:54:56 10° S 18:57:31 27° ESE 18:59:37 12° NE
Cosmos 1048 Rocket 4.4 18:53:20 10° S 18:58:03 38° ESE 19:02:46 10° NE
CZ-4 R/B 2.1 18:55:04 10° S 18:59:13 60° W 19:03:18 10° NNW
Landsat 4 3.6 18:56:17 10° NNE 19:00:02 86° ESE 19:03:46 10° SSW
Cosmos 1420 Rocket 4.2 18:54:47 10° NNW 19:00:08 79° WSW 19:05:25 10° SSE
CZ-2C R/B 3.7 18:58:54 10° NNE 19:03:27 89° ESE 19:07:54 10° SSW
Meteor 1-28 Rocket 3.3 19:06:13 10° N 19:10:02 80° WNW 19:13:48 10° SSW
Cosmos 2219 Rocket 2.1 19:07:50 10° NNW 19:13:27 71° ENE 19:19:03 10° SE
Cosmos 2084 3.0 19:09:48 10° NW 19:13:36 76° NE 19:17:27 10° SE
Cosmos 1315 Rocket 3.4 19:10:03 10° NNW 19:14:07 64° W 19:18:11 10° S
NOAA 12 4.1 19:09:40 10° SSE 19:14:56 67° ENE 19:20:15 10° N
Cosmos 2221 2.5 19:12:33 10° S 19:16:50 64° E 19:21:11 10° NNE
Cosmos 921 Rocket 4.3 19:13:01 10° NNW 19:17:17 45° WSW 19:21:26 10° S
Cosmos 1000 Rocket 4.4 19:11:21 10° N 19:17:36 73° E 19:23:45 10° SSE
SKYMED 2 3.5 19:14:55 10° NNE 19:19:16 68° ESE 19:23:35 10° S
METEOR-M 4.3 19:15:42 10° S 19:21:03 78° WSW 19:26:26 10° NNW
ALOS 2.2 19:16:33 10° SSE 19:21:11 69° ENE 19:25:51 10° N
Thor Agena Rocket 4.2 19:17:26 10° NNE 19:21:57 31° E 19:26:24 10° SSE
Cosmos 1934 Rocket 4.3 19:16:18 10° SSE 19:22:14 43° E 19:28:10 10° NNE
GP-B 3.9 19:18:36 10° N 19:22:57 55° W 19:27:18 10° SSW
Cosmos 1821 Rocket 4.0 19:18:07 10° SSE 19:24:07 56° E 19:30:16 10° NNE
Cosmos 1331 Rocket 4.1 19:22:24 10° NNW 19:27:34 54° ENE 19:32:38 10° SE
Cosmos 2239 Rocket 4.4 19:23:25 10° S 19:29:25 61° E 19:35:30 10° NNE
Cosmos 1908 3.7 19:32:44 10° SSW 19:36:37 63° WNW 19:40:30 10° N
Lacrosse 5 rocket 2.8 19:34:40 10° WNW 19:38:31 29° N 19:40:28 20° NE
SJ-6B 3.1 19:37:15 28° ESE 19:38:34 39° ENE 19:42:05 10° N
Aureole 2 Rocket 3.2 19:35:40 10° NNW 19:39:32 63° WSW 19:43:33 10° S
BREEZE-M DEB (TANK) 3.6 19:32:30 10° W 19:43:41 66° S 19:45:54 28° ESE
H-2A R/B 2.7 19:42:31 11° SSE 19:46:13 61° ENE 19:50:07 10° N
BREEZE-M DEB (TANK) 2.4 19:45:05 10° SW 19:46:33 31° S 19:46:33 31° S
Abrixas rocket 2.4 19:44:36 10° W 19:47:51 61° SSW 19:48:35 45° SE
In-Cosmos 22 Rocket 4.2 19:42:55 10° N 19:48:40 69° ENE 19:54:28 10° SSE
Cosmos 1470 Rocket 4.0 19:44:32 10° N 19:48:46 39° ENE 19:49:38 35° E
Cosmos 44 3.0 19:44:58 10° SW 19:49:19 84° NW 19:52:16 20° NE
DMSP B5D1-3 4.4 19:44:18 10° NNE 19:49:28 80° ESE 19:54:37 10° SSW
Cosmos 2123 Rocket 3.9 19:44:15 10° N 19:50:30 75° E 19:56:47 10° SSE
Cosmos 2237 Rocket 2.1 19:45:12 10° NNW 19:50:56 76° ENE 19:55:32 16° SE
SL-8 R/B 3.7 19:48:00 10° WSW 19:52:50 79° S 19:54:42 38° E
Cosmos 1269 Rocket 4.0 19:48:10 10° SSW 19:53:28 88° WNW 19:58:48 10° NNE
Cosmos 1302 Rocket 4.1 19:51:51 10° NNW 19:57:00 56° ENE 19:59:12 32° SE
Cosmos 967 Rocket 4.5 19:51:18 10° NW 19:57:47 76° NE 20:01:50 25° SE
Cosmos 1605 Rocket 4.0 19:52:45 10° SSE 19:58:39 53° E 20:04:32 10° NNE
Cosmos 1300 2.5 19:56:28 10° S 20:00:17 79° E 20:04:09 10° NNE
MOS 1-B Rocket 4.1 19:56:56 21° SE 20:00:42 55° ENE 20:06:59 10° N
BREEZE M DEB (TANK) 2.3 19:57:46 10° WNW 20:01:53 47° SSW 20:02:08 45° S
Cosmos 2227 Rocket 2.5 19:56:49 10° S 20:02:03 40° ESE 20:03:07 36° E
Sich 1 3.3 19:58:00 10° NNW 20:02:22 70° W 20:06:45 10° S
Cosmos 1892 3.8 19:58:47 10° N 20:01:03 29° NNE 20:01:03 29° NNE
SL-16 R/B 2.5 19:58:17 10° NNW 20:03:46 46° NE 20:05:09 39° E
Iridium 4 Rocket 4.2 19:58:51 10° SSW 20:04:32 64° W 20:10:26 10° N
NOSS 0 Rocket 4.2 19:59:55 10° NW 20:06:03 67° WSW 20:12:07 10° SSE
FREGAT/IRIS 3.0 20:05:35 50° SSW 20:06:07 63° W 20:09:06 10° NNW
COSMO-SKYMED 1 3.9 20:03:09 10° N 20:07:15 42° WNW 20:11:20 10° SW
Spot 2 Rocket 3.8 20:09:46 42° ENE 20:09:55 42° ENE 20:14:42 10° N
Cosmos 494 Rocket 3.9 20:06:07 10° S 20:11:07 58° ESE 20:13:13 33° NE
Resurs 01 Rocket 2.1 20:12:41 43° NE 20:12:41 43° NE 20:16:18 10° N
CZ-2D R/B 3.8 20:14:21 46° NNE 20:14:21 46° NNE 20:17:20 10° N
USA 234 3.7 20:11:06 31° ENE 20:13:56 50° NNE 20:20:14 10° WNW
Resurs 1-3 4.2 20:15:52 40° NE 20:15:52 40° NE 20:19:12 10° N
Cosmos 1980 3.9 20:09:45 10° NNW 20:15:24 70° WSW 20:19:50 17° SSE
ATLAS 5 CENTAUR R/B 3.6 20:11:32 10° NNW 20:15:57 24° NNE 20:17:11 22° NE
Meteor 2-3 Rocket 3.6 20:17:10 10° N 20:22:57 72° ENE 20:25:11 38° SSE
USA 32 3.9 20:18:03 10° N 20:23:20 79° E 20:25:56 31° SSE
Cosmos 44 Rocket 4.0 20:22:29 10° WSW 20:27:02 48° NW 20:29:24 26° NNE
Cosmos 1447 Rocket 4.4 20:21:45 10° N 20:28:08 79° E 20:32:06 24° SSE
Cosmos 2333 Rocket 3.4 20:22:52 10° NW 20:28:14 41° WSW 20:33:34 10° S
CZ-4C R/B 2.4 20:24:24 10° SW 20:29:47 70° NW 20:33:20 26° NE
Cosmos 1726 4.1 20:27:54 10° SW 20:31:11 30° WNW 20:34:29 10° N
Cosmos 1633 Rocket 4.2 20:28:30 10° NNW 20:32:43 43° W 20:36:54 10° SSW
H-2A R/B 4.4 20:35:14 12° NNE 20:35:14 12° NNE 20:35:50 10° NNE
Cosmos 2219 3.9 20:27:33 10° SW 20:33:10 55° NW 20:38:49 10° NNE
Meteor 2-10 4.4 20:29:35 10° SSW 20:34:35 61° WNW 20:39:45 10° N
Cosmos 1933 Rocket 3.6 20:31:46 10° N 20:35:41 70° NNW 20:35:41 70° NNW
Cosmos 2297 Rocket 2.5 20:33:35 10° SSW 20:37:55 50° SSE 20:37:55 50° SSE
Envisat 2.9 20:45:15 80° NNE 20:45:15 80° NNE 20:50:07 10° NNW
Cosmos 2251 Rocket 3.7 20:42:19 10° SSW 20:46:42 62° S 20:46:42 62° S
Cosmos 2082 4.0 20:44:03 10° SSW 20:48:19 51° S 20:48:19 51° S
Cosmos 2219 Rocket 4.5 20:52:44 10° NW 20:56:50 21° W 21:00:57 10° SSW
Lacrosse 5 rocket 3.6 21:14:23 10° NW 21:16:10 22° NW 21:16:10 22° NW
Cosmos 2237 Rocket 4.4 21:30:20 10° NW 21:34:22 20° W 21:37:26 13° SW
Cosmos 2227 Rocket 3.4 21:40:47 10° WSW 21:45:03 37° WNW 21:45:03 37° WNW
SL-16 R/B 3.6 21:42:39 10° NW 21:47:03 34° W 21:47:03 34° W
Resurs 01 Rocket 4.2 21:50:16 18° WNW 21:50:16 18° WNW 21:52:13 10° NW
USA 234 3.8 21:58:27 53° WNW 21:58:27 53° WNW 22:03:16 10° WNW
ATLAS 5 CENTAUR R/B 3.9 21:56:05 10° NW 21:58:42 28° NNW 21:58:42 28° NNW
CZ-3A R/B 4.4 22:04:02 10° NW 22:17:11 50° WSW 22:17:11 50° WSW
CZ-4C R/B 4.1 22:14:31 10° WNW 22:18:32 27° NNW 22:18:32 27° NNW
